Medicine Lodge, KS

2:46 PM CST on December 05, 2019 (GMT -0600)
Medicine Lodge

Weather History for KP28 - October, 2019

Change the Weather History Date:

Thursday, October 10, 2019

  Actual Average Record
Temperature  
Mean Temperature 54 °F 61 °F  
Max Temperature 70 °F 74 °F 94 °F (1963)
Min Temperature 37 °F 49 °F 28 °F (1896)
Degree Days  
Heating Degree Days 11 6  
Month to date heating degree days 49 47  
Since 1 July heating degree days 49 81  
Cooling Degree Days 0 2  
Month to date cooling degree days 23 25  
Year to date cooling degree days 1837 1756  
Growing Degree Days 4 (Base 50)    
Moisture  
Dew Point 45 °F    
Average Humidity 76    
Maximum Humidity 93    
Minimum Humidity 59    
Precipitation  
Precipitation 0.00 in 0.09 in 3.81 in (1949)
Month to date precipitation 1.76 0.87  
Year to date precipitation 30.34 23.32  
Snow  
Snow 0.00 in 0.00 in - ()
Month to date snowfall 0.0 0.0  
Since 1 July snowfall 0.0 0.0  
Since 1 September snowfall 0.0 0.0  
Snow Depth 0.00 in    
Sea Level Pressure  
Sea Level Pressure 29.85 in    
Wind  
Wind Speed 16 mph (NNW)    
Max Wind Speed 26 mph    
Max Gust Speed 43 mph    
T = Trace of Precipitation, MM = Missing Value Source: NWS Daily Summary

Daily Weather History Graph

Daily Weather History Graph

Search for Another Location

Airport or City:

Astronomy

Oct. 10, 2019 Rise Set
Actual Time 7:37 AM CDT 7:04 PM CDT
Civil Twilight 7:11 AM CDT 7:30 PM CDT
Nautical Twilight 6:41 AM CDT 8:00 PM CDT
Astronomical Twilight 6:10 AM CDT 8:31 PM CDT
Moon 6:01 PM CDT (10/10) 4:28 AM CDT (10/10)
Length of Visible Light 12h 19m
Length of Day
11h 27m
Waxing Gibbous, 91% of the Moon is Illuminated
Oct 10
Waxing Gibbous
Oct 13
Full
Oct 21
Last Quarter
Oct 27
New
Nov 4
First Quarter

Hourly Weather History & Observations

Time (CDT) Temp. Windchill Dew Point Humidity Pressure Visibility Wind Dir Wind Speed Gust Speed Precip Events Conditions
12:56 AM 70.0 °F - 64.9 °F 84% 29.62 in - SSE 9.2 mph 17.3 mph N/A   Unknown
1:56 AM 69.1 °F - 64.9 °F 87% 29.61 in - SE 11.5 mph 20.7 mph N/A   Unknown
2:56 AM 66.0 °F - 64.0 °F 93% 29.61 in - ESE 9.2 mph 18.4 mph N/A   Unknown
3:56 AM 66.0 °F - 64.0 °F 93% 29.58 in - ESE 11.5 mph - N/A   Unknown
4:56 AM 64.0 °F - 63.0 °F 96% 29.59 in - ESE 8.1 mph - N/A   Unknown
5:56 AM 64.0 °F - 63.0 °F 96% 29.60 in - SE 6.9 mph - N/A   Unknown
6:56 AM 64.9 °F - 63.0 °F 93% 29.64 in - SW 9.2 mph - N/A   Unknown
7:56 AM 52.0 °F - 48.9 °F 89% 29.73 in - NW 16.1 mph 28.8 mph N/A   Unknown
8:56 AM 50.0 °F - 45.0 °F 83% 29.79 in - NNW 21.9 mph 36.8 mph N/A   Unknown
9:56 AM 50.0 °F - 43.0 °F 77% 29.82 in - NNW 23.0 mph 40.3 mph N/A   Unknown
10:56 AM 48.0 °F - 39.9 °F 74% 29.87 in - NW 19.6 mph 35.7 mph N/A   Unknown
11:56 AM 48.0 °F - 39.9 °F 74% 29.89 in - NNW 16.1 mph 31.1 mph N/A   Unknown
12:56 PM 48.0 °F - 39.0 °F 71% 29.91 in - NNW 17.3 mph 36.8 mph N/A   Unknown
1:56 PM 48.0 °F - 37.9 °F 68% 29.91 in - NNW 21.9 mph 33.4 mph N/A   Unknown
2:56 PM 46.9 °F - 37.0 °F 68% 29.93 in - NNW 19.6 mph 36.8 mph N/A   Unknown
3:56 PM 46.9 °F - 36.0 °F 66% 29.94 in - NNW 20.7 mph 35.7 mph N/A   Unknown
4:56 PM 45.0 °F 37.4 °F 34.0 °F 65% 29.97 in - NNW 18.4 mph 39.1 mph N/A   Unknown
5:56 PM 44.1 °F 35.2 °F 33.1 °F 65% 29.99 in - NNW 23.0 mph 36.8 mph N/A   Unknown
6:56 PM 42.1 °F 34.9 °F 32.0 °F 67% 30.03 in - NNW 13.8 mph 35.7 mph N/A   Unknown
7:56 PM 41.0 °F 33.9 °F 30.0 °F 65% 30.08 in - North 12.7 mph 32.2 mph N/A   Unknown
8:56 PM 39.9 °F 31.4 °F 28.9 °F 65% 30.12 in - NNW 16.1 mph 27.6 mph N/A   Unknown
10:56 PM 39.0 °F 30.3 °F 27.0 °F 62% 30.18 in - NNW 16.1 mph 27.6 mph N/A   Unknown
11:56 PM 37.9 °F 28.9 °F 27.0 °F 65% 30.22 in - NNW 16.1 mph 33.4 mph N/A   Unknown